Cotulla, TX

3:41 AM CST on February 27, 2017 (GMT -0600)
Cotulla-La Salle County

Weather History for KCOT - January, 2014

Change the Weather History Date:

Sunday, January 26, 2014

  Actual Average Record
Temperature  
Mean Temperature 60 °F -  
Max Temperature 82 °F 65 °F 84 °F (2009)
Min Temperature 39 °F 44 °F 30 °F (2011)
Degree Days  
Heating Degree Days 4    
Growing Degree Days 10 (Base 50)    
Moisture  
Dew Point 42 °F    
Average Humidity 57    
Maximum Humidity 86    
Minimum Humidity 26    
Precipitation  
Precipitation 0.00 in - - ()
Sea Level Pressure  
Sea Level Pressure 29.87 in    
Wind  
Wind Speed 2 mph (South)    
Max Wind Speed 15 mph    
Max Gust Speed 21 mph    
Visibility 10 miles    
Events      
Averages and records for this station are not official NWS values.
T = Trace of Precipitation, MM = Missing Value Source: NWS Daily Summary

Daily Weather History Graph

Daily Weather History Graph

Search for Another Location

Airport or City:

Trip Planner

Search our weather history database for the weather conditions in past years. The results will help you decide how hot, cold, wet, or windy it might be!

Date:

Astronomy

Jan. 26, 2014 Rise Set
Actual Time 7:27 AM CST 6:11 PM CST
Civil Twilight 7:02 AM CST 6:36 PM CST
Nautical Twilight 6:34 AM CST 7:05 PM CST
Astronomical Twilight 6:06 AM CST 7:33 PM CST
Moon 3:05 AM CST (1/26) 2:04 PM CST (1/26)
Length of Visible Light 11h 34m
Length of Day
10h 44m
Waning Crescent, 23% of the Moon is Illuminated
Jan 26
Waning Crescent
Jan 30
New
Feb 6
First Quarter
Feb 14
Full
Feb 22
Last Quarter

Hourly Weather History & Observations

Time (CST) Temp. Dew Point Humidity Pressure Visibility Wind Dir Wind Speed Gust Speed Precip Events Conditions
12:53 AM 46.9 °F 37.0 °F 68% 30.02 in 10.0 mi Calm Calm - N/A   Clear
1:53 AM 43.0 °F 37.0 °F 80% 30.01 in 10.0 mi Calm Calm - N/A   Clear
2:53 AM 43.0 °F 36.0 °F 76% 29.99 in 10.0 mi Calm Calm - N/A   Clear
3:53 AM 39.9 °F 35.1 °F 83% 29.98 in 10.0 mi Calm Calm - N/A   Clear
4:53 AM 39.9 °F 35.1 °F 83% 29.97 in 10.0 mi Calm Calm - N/A   Clear
5:53 AM 39.0 °F 35.1 °F 86% 29.96 in 10.0 mi Calm Calm - N/A   Clear
6:53 AM 39.9 °F 36.0 °F 86% 29.95 in 10.0 mi Calm Calm - N/A   Clear
7:53 AM 42.1 °F 37.9 °F 85% 29.96 in 10.0 mi Calm Calm - N/A   Clear
8:53 AM 48.0 °F 39.0 °F 71% 29.96 in 10.0 mi Calm Calm - N/A   Clear
9:53 AM 55.0 °F 43.0 °F 64% 29.95 in 10.0 mi South 5.8 mph - N/A   Clear
10:53 AM 64.0 °F 46.0 °F 52% 29.94 in 10.0 mi Variable 3.5 mph - N/A   Clear
11:53 AM 70.0 °F 46.9 °F 44% 29.89 in 10.0 mi SSW 15.0 mph 18.4 mph N/A   Clear
12:53 PM 75.0 °F 46.0 °F 36% 29.84 in 10.0 mi SSW 15.0 mph 20.7 mph N/A   Clear
1:53 PM 79.0 °F 45.0 °F 30% 29.79 in 10.0 mi SSW 6.9 mph - N/A   Clear
2:53 PM 80.1 °F 44.1 °F 28% 29.76 in 10.0 mi SSW 9.2 mph - N/A   Clear
3:53 PM 82.0 °F 44.1 °F 26% 29.73 in 10.0 mi SW 6.9 mph - N/A   Clear
4:53 PM 82.0 °F 44.1 °F 26% 29.73 in 10.0 mi SW 4.6 mph - N/A   Clear
5:53 PM 78.1 °F 45.0 °F 31% 29.73 in 10.0 mi South 3.5 mph - N/A   Clear
6:53 PM 69.1 °F 45.0 °F 42% 29.74 in 10.0 mi Calm Calm - N/A   Clear
7:53 PM 66.0 °F 46.0 °F 48% 29.75 in 10.0 mi Calm Calm - N/A   Clear
8:53 PM 62.1 °F 45.0 °F 53% 29.77 in 10.0 mi SE 4.6 mph - N/A   Clear
9:53 PM 60.1 °F 45.0 °F 57% 29.77 in 10.0 mi SSE 5.8 mph - N/A   Clear
10:53 PM 61.0 °F 45.0 °F 56% 29.79 in 10.0 mi SSE 4.6 mph - N/A   Clear
11:53 PM 55.9 °F 45.0 °F 67% 29.79 in 10.0 mi Calm Calm - N/A   Clear